GFSFLT2_prec_precacc_264.txt.gz
Total_Precipitation_Accumulation
6.15 3.91 3.40 3.64 2.49 2.39 3.34 3.34 2.82 1.83 1.41 1.21 1.34 1.00 0.86 0.72 0.55 0.51 0.46 0.43 0.54 0.56 0.66 0.68 0.55 0.42 0.34 0.32 0.38 0.42 0.47 0.63
7.16 5.24 3.28 1.82 2.53 2.35 2.30 3.10 3.70 2.41 1.93 1.76 1.43 1.28 1.06 0.69 0.51 0.55 0.74 0.70 0.46 0.33 0.44 0.52 0.47 0.33 0.27 0.32 0.41 0.67 0.45 0.54
6.73 6.46 4.08 2.83 2.63 2.56 2.02 1.84 2.81 3.68 2.49 2.07 1.77 1.04 1.04 0.80 0.83 0.79 0.81 0.72 0.71 0.64 0.54 0.47 0.43 0.32 0.30 0.55 0.50 0.42 0.53 0.45
3.03 3.35 3.10 2.47 3.23 3.28 2.16 1.91 1.35 2.70 2.97 2.19 1.62 1.02 1.03 0.95 0.74 0.78 0.84 0.76 0.84 0.81 0.77 0.61 0.44 0.23 0.20 0.28 0.31 0.70 0.80 0.79
1.31 1.59 1.54 1.63 2.15 1.83 1.88 1.84 1.56 1.65 2.66 2.13 1.43 0.97 0.88 1.18 0.65 0.71 1.07 1.14 0.89 0.73 0.56 0.51 0.39 0.31 0.17 0.15 0.24 0.32 0.42 0.72
1.09 0.93 1.16 1.36 1.62 1.59 1.28 1.43 1.65 1.54 2.16 2.03 1.45 1.04 0.68 0.80 0.44 0.49 1.07 1.05 0.79 0.62 0.39 0.42 0.46 0.47 0.30 0.33 0.33 0.41 0.33 0.60
1.04 0.89 0.95 1.04 0.96 1.02 0.95 0.92 1.27 1.59 1.70 1.91 1.70 1.06 0.59 0.63 0.52 0.53 0.90 0.84 0.89 0.54 0.48 0.57 0.53 0.55 0.47 0.35 0.26 0.51 0.48 0.57
1.04 1.31 0.99 1.13 0.89 0.86 0.87 0.82 1.11 1.52 1.72 1.95 2.34 1.72 1.29 0.92 0.78 0.62 0.78 0.80 0.73 0.60 0.35 0.49 0.64 0.55 0.53 0.36 0.16 0.39 0.52 0.71
1.14 1.65 1.27 1.21 0.85 0.95 0.97 1.01 0.97 1.05 1.29 1.91 2.37 2.51 2.18 1.61 1.14 0.75 0.76 0.87 0.54 0.55 0.53 0.53 0.54 0.56 0.49 0.47 0.31 0.22 0.29 0.54
1.32 1.42 1.03 1.22 1.05 1.22 1.60 1.00 0.72 0.81 0.98 1.30 1.76 2.09 2.03 1.75 1.70 1.07 1.00 0.96 0.55 0.45 0.35 0.44 0.48 0.44 0.37 0.35 0.29 0.20 0.16 0.27
0.89 0.98 1.03 1.51 1.91 2.01 1.59 1.03 0.73 0.91 0.83 0.89 1.18 1.85 1.85 1.68 1.80 1.71 1.21 1.09 0.80 0.53 0.34 0.36 0.41 0.39 0.33 0.35 0.38 0.26 0.16 0.22
0.76 0.84 1.34 2.10 2.03 1.40 1.26 1.24 1.17 1.18 0.85 0.88 1.10 1.75 1.59 2.07 2.30 2.05 2.06 1.11 0.90 0.92 0.55 0.48 0.40 0.30 0.37 0.40 0.30 0.31 0.29 0.31
0.70 0.86 0.81 0.98 1.07 1.18 1.20 1.11 1.20 1.05 0.80 0.87 1.10 1.66 1.81 1.70 2.13 2.23 2.20 1.57 1.13 0.96 0.88 0.77 0.61 0.58 0.79 0.74 0.47 0.44 0.44 0.37
0.41 0.34 0.23 0.33 0.54 0.68 0.75 0.75 0.70 0.89 1.08 0.99 1.44 1.63 1.86 1.78 2.05 2.43 2.12 2.44 1.93 1.47 1.13 1.01 0.66 0.75 0.77 0.78 0.90 0.92 0.42 0.34
0.09 0.16 0.14 0.26 0.39 0.80 1.41 1.81 1.88 2.07 1.56 1.41 1.64 1.57 1.81 1.93 2.11 2.24 2.59 2.72 2.52 2.48 1.66 1.30 1.33 1.17 0.69 0.82 0.85 0.82 0.70 0.47
0.13 0.13 0.22 0.33 0.62 0.88 1.23 1.19 1.19 1.12 1.39 1.61 1.81 2.08 2.10 2.21 2.30 3.09 2.87 3.31 3.24 2.71 2.30 1.53 1.53 1.40 1.22 0.91 0.72 0.63 0.59 0.55
0.10 0.15 0.34 0.50 0.79 0.74 1.16 1.57 1.56 1.36 1.54 2.04 2.69 2.24 2.38 2.83 2.77 2.70 3.09 3.44 3.96 3.84 3.38 2.31 1.67 1.41 1.10 0.85 0.88 0.83 0.64 0.67
0.12 0.18 0.23 0.50 0.71 1.30 1.93 1.90 1.85 1.97 1.83 1.69 2.16 2.91 2.54 2.83 3.12 2.63 2.49 2.59 3.31 3.69 4.30 3.84 3.01 2.18 1.64 1.25 0.81 0.81 0.70 0.71
0.21 0.16 0.21 0.29 0.55 1.08 1.53 2.22 2.75 2.42 2.01 2.07 2.10 2.99 3.54 2.98 2.75 3.18 3.10 2.76 2.84 3.43 3.52 3.83 3.72 3.48 2.73 2.08 1.60 0.99 0.73 0.76
0.47 0.31 0.40 0.43 0.63 1.06 1.41 1.87 2.32 3.25 3.42 3.31 3.22 2.90 3.63 4.84 5.01 3.48 3.10 3.68 3.54 3.37 3.59 3.59 3.51 3.47 3.27 2.95 2.32 1.61 1.14 1.17

GFSFLT2_prec_precacc_270.txt.gz
Total_Precipitation_Accumulation
6.15 3.91 3.41 3.65 2.55 2.45 3.41 3.39 2.83 1.84 1.43 1.24 1.40 1.05 0.91 0.77 0.58 0.53 0.47 0.44 0.56 0.60 0.69 0.70 0.56 0.42 0.34 0.32 0.38 0.52 0.82 0.83
7.16 5.24 3.29 1.83 2.56 2.48 2.47 3.30 3.78 2.43 1.94 1.78 1.47 1.32 1.11 0.73 0.53 0.56 0.77 0.71 0.48 0.36 0.47 0.54 0.48 0.34 0.27 0.32 0.41 0.71 0.60 0.74
6.73 6.46 4.08 2.83 2.64 2.64 2.23 2.07 3.01 3.81 2.51 2.07 1.78 1.10 1.14 0.84 0.83 0.79 0.83 0.75 0.75 0.68 0.57 0.51 0.46 0.36 0.33 0.55 0.50 0.42 0.56 0.55
3.03 3.35 3.10 2.47 3.23 3.29 2.23 2.08 1.62 2.87 3.05 2.29 1.69 1.09 1.12 1.03 0.80 0.79 0.87 0.79 0.88 0.86 0.80 0.64 0.52 0.27 0.25 0.29 0.31 0.70 0.85 0.96
1.31 1.59 1.54 1.63 2.15 1.83 1.88 1.86 1.72 1.88 2.84 2.25 1.54 1.12 1.03 1.33 0.80 0.82 1.13 1.18 0.92 0.76 0.58 0.53 0.43 0.35 0.19 0.16 0.24 0.33 0.46 0.79
1.09 0.93 1.16 1.36 1.62 1.59 1.28 1.43 1.67 1.68 2.40 2.25 1.57 1.22 0.82 0.95 0.68 0.71 1.23 1.10 0.80 0.63 0.41 0.43 0.47 0.52 0.32 0.33 0.33 0.41 0.45 0.76
1.04 0.89 0.95 1.04 0.96 1.02 0.95 0.92 1.27 1.62 1.82 2.16 1.99 1.37 0.86 0.89 0.85 0.90 1.18 1.10 0.99 0.59 0.51 0.58 0.55 0.56 0.50 0.36 0.27 0.52 0.53 0.60
1.04 1.31 0.99 1.13 0.89 0.86 0.87 0.82 1.11 1.52 1.73 2.02 2.49 1.95 1.66 1.47 1.45 1.52 1.55 1.27 1.06 0.73 0.37 0.53 0.65 0.57 0.57 0.41 0.17 0.40 0.71 0.88
1.14 1.65 1.27 1.21 0.85 0.95 0.97 1.01 0.97 1.05 1.29 1.92 2.41 2.59 2.41 2.17 2.03 2.09 2.02 1.65 1.02 0.81 0.66 0.61 0.57 0.57 0.52 0.53 0.35 0.25 0.38 1.03
1.32 1.42 1.03 1.22 1.05 1.22 1.60 1.00 0.72 0.81 0.98 1.30 1.77 2.11 2.10 1.91 2.05 2.07 2.86 2.76 1.64 0.98 0.67 0.60 0.60 0.49 0.42 0.41 0.33 0.26 0.24 0.59
0.89 0.98 1.03 1.51 1.91 2.01 1.59 1.03 0.73 0.91 0.83 0.89 1.18 1.85 1.88 1.77 1.91 2.00 2.03 2.46 2.20 1.65 0.98 0.59 0.57 0.51 0.41 0.38 0.43 0.29 0.24 0.37
0.76 0.84 1.34 2.10 2.03 1.40 1.26 1.24 1.17 1.18 0.85 0.88 1.10 1.75 1.59 2.08 2.37 2.19 2.71 2.32 2.05 2.02 1.56 1.03 0.64 0.43 0.59 0.52 0.34 0.36 0.35 0.37
0.70 0.86 0.81 0.98 1.07 1.18 1.20 1.11 1.20 1.05 0.80 0.87 1.10 1.66 1.81 1.71 2.14 2.27 2.47 2.63 2.52 1.88 1.84 2.03 1.28 0.75 1.18 1.07 0.62 0.67 0.64 0.53
0.41 0.34 0.23 0.33 0.54 0.68 0.75 0.75 0.70 0.89 1.08 0.99 1.44 1.63 1.86 1.78 2.06 2.45 2.17 2.67 2.84 2.64 1.95 1.80 1.68 1.37 1.21 1.15 1.09 1.09 0.70 0.74
0.09 0.16 0.14 0.26 0.39 0.80 1.41 1.81 1.88 2.07 1.56 1.41 1.64 1.57 1.81 1.93 2.12 2.25 2.61 2.81 2.97 3.30 2.69 1.95 1.87 1.72 1.22 1.41 1.11 0.91 0.76 0.59
0.13 0.13 0.22 0.33 0.62 0.88 1.23 1.19 1.19 1.12 1.39 1.61 1.81 2.09 2.10 2.21 2.30 3.09 2.88 3.34 3.32 3.10 3.61 2.78 2.09 1.82 1.82 1.40 1.19 0.73 0.60 0.61
0.10 0.15 0.34 0.50 0.79 0.74 1.16 1.57 1.56 1.36 1.54 2.04 2.69 2.24 2.38 2.83 2.77 2.70 3.10 3.45 3.99 3.93 3.80 4.14 3.15 2.13 1.56 1.58 1.40 1.10 0.67 0.68
0.12 0.18 0.23 0.50 0.71 1.30 1.93 1.90 1.86 1.97 1.83 1.69 2.16 2.92 2.54 2.84 3.12 2.64 2.50 2.60 3.32 3.71 4.46 4.53 4.55 3.65 2.54 1.84 1.58 1.35 0.82 0.72
0.21 0.16 0.21 0.29 0.55 1.08 1.53 2.22 2.75 2.42 2.02 2.07 2.11 3.00 3.55 2.99 2.76 3.19 3.11 2.77 2.84 3.44 3.55 4.04 4.53 4.75 4.25 3.16 2.55 1.70 1.25 0.82
0.47 0.31 0.40 0.43 0.63 1.06 1.41 1.87 2.32 3.25 3.43 3.31 3.23 2.91 3.64 4.84 5.02 3.48 3.11 3.69 3.54 3.37 3.61 3.63 3.75 4.16 4.33 4.36 3.58 2.88 1.95 1.55

GFSFLT2_prec_precacc_276.txt.gz
Total_Precipitation_Accumulation
6.15 3.91 3.41 3.65 2.55 2.45 3.42 3.42 2.90 1.95 1.51 1.28 1.47 1.13 0.99 0.87 0.64 0.59 0.54 0.49 0.57 0.61 0.71 0.72 0.56 0.44 0.41 0.33 0.41 0.66 1.10 1.26
7.16 5.24 3.29 1.83 2.56 2.48 2.47 3.32 3.85 2.53 2.01 1.84 1.51 1.43 1.25 0.86 0.61 0.64 0.84 0.77 0.52 0.38 0.49 0.56 0.50 0.34 0.34 0.36 0.45 0.80 1.11 1.52
6.73 6.46 4.08 2.83 2.64 2.64 2.23 2.07 3.02 3.85 2.60 2.19 1.89 1.17 1.24 0.97 0.94 0.92 0.93 0.84 0.82 0.74 0.58 0.52 0.48 0.37 0.37 0.66 0.57 0.49 0.85 1.27
3.03 3.35 3.10 2.47 3.23 3.29 2.23 2.08 1.62 2.88 3.11 2.43 1.85 1.21 1.20 1.16 0.96 1.02 1.01 0.87 0.98 0.94 0.87 0.68 0.53 0.27 0.27 0.45 0.42 0.81 1.09 1.40
1.31 1.59 1.54 1.63 2.15 1.83 1.88 1.86 1.72 1.88 2.85 2.29 1.64 1.24 1.16 1.47 0.96 1.00 1.32 1.35 1.04 0.85 0.66 0.59 0.44 0.35 0.20 0.23 0.32 0.50 0.74 1.27
1.09 0.93 1.16 1.36 1.62 1.59 1.28 1.43 1.67 1.68 2.40 2.25 1.60 1.31 1.01 1.22 0.98 0.91 1.45 1.47 1.04 0.73 0.47 0.50 0.50 0.52 0.33 0.34 0.40 0.52 0.65 1.08
1.04 0.89 0.95 1.04 0.96 1.02 0.95 0.92 1.27 1.62 1.82 2.16 1.99 1.38 0.92 1.05 1.11 1.30 1.52 1.45 1.40 0.85 0.60 0.64 0.58 0.58 0.50 0.37 0.32 0.64 0.78 0.86
1.04 1.31 0.99 1.13 0.89 0.86 0.87 0.82 1.11 1.52 1.73 2.02 2.49 1.95 1.67 1.53 1.63 1.85 1.94 1.80 1.70 1.27 0.65 0.73 0.78 0.67 0.63 0.45 0.22 0.54 0.89 1.07
1.14 1.65 1.27 1.21 0.85 0.95 0.97 1.01 0.97 1.05 1.29 1.92 2.41 2.59 2.41 2.18 2.09 2.22 2.38 2.39 1.95 1.65 1.19 0.90 0.78 0.71 0.60 0.59 0.42 0.40 0.55 1.21
1.32 1.42 1.03 1.22 1.05 1.22 1.60 1.00 0.72 0.81 0.98 1.30 1.77 2.11 2.10 1.91 2.05 2.10 2.97 3.09 2.43 2.27 1.87 1.31 0.91 0.69 0.54 0.50 0.42 0.47 0.44 0.80
0.89 0.98 1.03 1.51 1.91 2.01 1.59 1.03 0.73 0.91 0.83 0.89 1.18 1.85 1.88 1.77 1.91 2.00 2.04 2.57 2.46 2.34 2.05 1.63 1.25 0.80 0.60 0.57 0.58 0.49 0.47 0.62
0.76 0.84 1.34 2.10 2.03 1.40 1.26 1.24 1.17 1.18 0.85 0.88 1.10 1.75 1.59 2.08 2.37 2.19 2.71 2.36 2.18 2.23 2.07 1.72 1.17 0.78 0.86 0.79 0.55 0.53 0.64 0.62
0.70 0.86 0.81 0.98 1.07 1.18 1.20 1.11 1.20 1.05 0.80 0.87 1.10 1.66 1.81 1.71 2.14 2.27 2.47 2.63 2.54 2.01 2.11 2.43 1.64 1.06 1.51 1.70 0.90 0.87 0.98 0.89
0.41 0.34 0.23 0.33 0.54 0.68 0.75 0.75 0.70 0.89 1.08 0.99 1.44 1.63 1.86 1.78 2.06 2.45 2.17 2.67 2.84 2.66 2.09 2.10 2.13 1.81 1.54 1.56 1.51 1.35 1.01 1.45
0.09 0.16 0.14 0.26 0.39 0.80 1.41 1.81 1.88 2.07 1.56 1.41 1.64 1.57 1.81 1.93 2.12 2.25 2.61 2.81 2.98 3.31 2.72 2.12 2.19 2.06 1.70 1.72 1.46 1.22 0.97 1.15
0.13 0.13 0.22 0.33 0.62 0.88 1.23 1.19 1.19 1.12 1.39 1.61 1.81 2.09 2.10 2.21 2.30 3.09 2.88 3.35 3.32 3.10 3.62 2.80 2.21 2.03 2.15 1.82 1.53 1.07 0.93 0.97
0.10 0.15 0.34 0.50 0.79 0.74 1.16 1.57 1.56 1.36 1.54 2.04 2.69 2.24 2.38 2.83 2.77 2.71 3.10 3.46 3.99 3.94 3.80 4.15 3.18 2.19 1.72 1.83 1.74 1.57 1.09 1.12
0.12 0.18 0.23 0.50 0.71 1.30 1.93 1.90 1.86 1.97 1.83 1.69 2.16 2.92 2.54 2.84 3.12 2.64 2.50 2.61 3.32 3.71 4.46 4.53 4.56 3.69 2.60 1.93 1.72 1.74 1.54 1.30
0.21 0.16 0.21 0.29 0.55 1.08 1.53 2.22 2.75 2.42 2.02 2.07 2.11 3.00 3.55 2.99 2.76 3.19 3.11 2.77 2.85 3.44 3.55 4.04 4.54 4.76 4.27 3.19 2.62 1.81 1.57 1.53
0.47 0.31 0.40 0.43 0.63 1.06 1.41 1.87 2.32 3.25 3.43 3.31 3.23 2.92 3.64 4.85 5.03 3.49 3.11 3.70 3.55 3.37 3.61 3.63 3.76 4.16 4.34 4.38 3.62 2.96 2.12 2.28

GFSFLT2_prec_precacc_279.txt.gz
Total_Precipitation_Accumulation
6.15 3.91 3.41 3.65 2.55 2.45 3.42 3.42 2.90 1.95 1.53 1.33 1.51 1.19 1.07 0.98 0.75 0.65 0.55 0.51 0.63 0.68 0.75 0.76 0.63 0.54 0.47 0.41 0.41 0.66 1.11 1.27
7.16 5.24 3.29 1.83 2.56 2.48 2.47 3.32 3.85 2.53 2.01 1.86 1.55 1.48 1.32 0.95 0.73 0.71 0.87 0.78 0.56 0.44 0.56 0.62 0.57 0.48 0.44 0.45 0.49 0.81 1.12 1.56
6.73 6.46 4.08 2.83 2.64 2.64 2.23 2.07 3.02 3.85 2.60 2.19 1.90 1.20 1.28 1.04 1.05 1.05 1.04 0.87 0.83 0.78 0.64 0.60 0.57 0.50 0.53 0.78 0.66 0.50 0.86 1.31
3.03 3.35 3.10 2.47 3.23 3.29 2.23 2.08 1.62 2.88 3.11 2.43 1.85 1.21 1.22 1.20 1.05 1.13 1.19 1.01 1.04 0.95 0.90 0.74 0.60 0.32 0.38 0.53 0.49 0.84 1.10 1.48
1.31 1.59 1.54 1.63 2.15 1.83 1.88 1.86 1.72 1.88 2.85 2.29 1.64 1.24 1.16 1.49 1.01 1.12 1.51 1.54 1.14 0.89 0.68 0.62 0.47 0.39 0.24 0.26 0.37 0.55 0.76 1.41
1.09 0.93 1.16 1.36 1.62 1.59 1.28 1.43 1.67 1.68 2.40 2.25 1.60 1.31 1.01 1.22 1.02 1.09 1.77 1.76 1.23 0.84 0.53 0.53 0.54 0.57 0.38 0.39 0.47 0.56 0.66 1.14
1.04 0.89 0.95 1.04 0.96 1.02 0.95 0.92 1.27 1.62 1.82 2.16 1.99 1.38 0.92 1.05 1.11 1.32 1.67 1.79 1.93 1.18 0.74 0.70 0.64 0.63 0.57 0.42 0.38 0.70 0.81 0.87
1.04 1.31 0.99 1.13 0.89 0.86 0.87 0.82 1.11 1.52 1.73 2.02 2.49 1.95 1.67 1.53 1.63 1.85 1.99 1.95 1.88 1.75 0.98 0.89 0.90 0.76 0.70 0.51 0.27 0.66 0.95 1.09
1.14 1.65 1.27 1.21 0.85 0.95 0.97 1.01 0.97 1.05 1.29 1.92 2.41 2.59 2.41 2.18 2.09 2.22 2.38 2.40 2.03 1.83 1.61 1.34 1.08 0.88 0.72 0.66 0.51 0.48 0.63 1.25
1.32 1.42 1.03 1.22 1.05 1.22 1.60 1.00 0.72 0.81 0.98 1.30 1.77 2.11 2.10 1.91 2.05 2.10 2.97 3.09 2.45 2.31 2.06 1.90 1.56 1.09 0.80 0.64 0.53 0.54 0.50 0.88
0.89 0.98 1.03 1.51 1.91 2.01 1.59 1.03 0.73 0.91 0.83 0.89 1.18 1.85 1.88 1.77 1.91 2.00 2.04 2.57 2.46 2.35 2.12 1.92 1.95 1.69 1.14 0.82 0.74 0.59 0.51 0.66
0.76 0.84 1.34 2.10 2.03 1.40 1.26 1.24 1.17 1.18 0.85 0.88 1.10 1.75 1.59 2.08 2.37 2.19 2.71 2.36 2.18 2.23 2.09 1.88 1.57 1.59 1.70 1.31 0.75 0.66 0.73 0.67
0.70 0.86 0.81 0.98 1.07 1.18 1.20 1.11 1.20 1.05 0.80 0.87 1.10 1.66 1.81 1.71 2.14 2.27 2.47 2.63 2.54 2.01 2.12 2.47 1.86 1.43 2.06 2.51 1.33 0.99 1.04 0.94
0.41 0.34 0.23 0.33 0.54 0.68 0.75 0.75 0.70 0.89 1.08 0.99 1.44 1.63 1.86 1.78 2.06 2.45 2.17 2.68 2.84 2.66 2.09 2.10 2.21 2.09 1.90 2.04 2.03 1.64 1.10 1.46
0.09 0.16 0.14 0.26 0.39 0.80 1.41 1.81 1.88 2.07 1.56 1.41 1.64 1.57 1.81 1.93 2.12 2.25 2.61 2.81 2.98 3.31 2.72 2.12 2.19 2.20 2.01 2.15 1.84 1.54 1.10 1.21
0.13 0.13 0.22 0.33 0.62 0.88 1.23 1.19 1.19 1.12 1.39 1.61 1.81 2.09 2.10 2.21 2.30 3.09 2.88 3.35 3.33 3.11 3.62 2.80 2.21 2.05 2.32 2.22 1.91 1.29 1.04 1.06
0.10 0.15 0.34 0.50 0.79 0.74 1.16 1.57 1.56 1.36 1.54 2.04 2.69 2.24 2.38 2.83 2.78 2.71 3.10 3.46 3.99 3.94 3.80 4.15 3.18 2.19 1.75 2.01 2.08 1.94 1.32 1.26
0.12 0.18 0.23 0.50 0.71 1.30 1.93 1.90 1.86 1.97 1.83 1.69 2.16 2.92 2.54 2.84 3.13 2.64 2.51 2.61 3.32 3.72 4.46 4.53 4.56 3.69 2.60 1.95 1.85 1.97 1.91 1.66
0.21 0.16 0.21 0.29 0.55 1.08 1.53 2.22 2.75 2.42 2.02 2.07 2.11 3.00 3.55 3.00 2.77 3.20 3.12 2.78 2.85 3.44 3.55 4.04 4.54 4.76 4.27 3.19 2.64 1.86 1.72 1.83
0.47 0.31 0.40 0.43 0.63 1.06 1.41 1.87 2.32 3.25 3.43 3.31 3.23 2.92 3.64 4.85 5.03 3.49 3.12 3.70 3.56 3.37 3.61 3.63 3.76 4.16 4.35 4.39 3.62 2.97 2.15 2.38